www.pogodaiklimat.ru

Погода и климат >> Архив погоды >> Мексика >> Нуэво Леон


ПОГОДА в Нуэво Леон

  • Прогноз погоды в Нуэво Леон
  • Монитор погоды в Нуэво Леон

АРХИВ ПОГОДЫ в Нуэво Леон

Время (UTC), дата Ветер
(напр.,м/с)
 
Видим.   Явления Облачность Т
(С)
Тd
(С)
f
(%)
Тe
(С)
Тes
(С)
Комфортность P
(гПа)
Po
(гПа)
Тmin
(С)
Tmax
(С)
R
(мм)
R24
(мм)
S
(см)
09 16.02 СЗ 1 2000 м ясно +11.3 +9.5 89 +11 +11 1016.2 1014.8
12 16.02 С 2 2000 м ясно +12.2 +7.7 74 +11 +11 1015.5 1014.1 +9.8 +22.2
15 16.02 З 5 10 км ясно +12.6 +8.1 74 +10 +11 1017.4 1016.0
18 16.02 З 6 10 км ясно +16.8 +4.4 44 +16 +19 1019.0 1017.6 +9.8 +17.8
21 16.02 СЗ 4 10 км ясно +19.6 +7.4 45 +20 +27 1016.9 1015.5
00 17.02 З 6 10 км ясно +19.4 +5.5 40 +20 +20 1015.3 1013.9 +9.8 +21.0
03 17.02 З 3 2000 м ясно +13.8 +8.1 68 +13 +13 1016.4 1015.0
06 17.02 З 2 2000 м ясно +11.6 +7.4 75 +11 +11 1016.9 1015.5 +10.1 +21.0
09 17.02 З 3 2000 м ясно +11.2 +6.0 70 +10 +10 1016.7 1015.3
12 17.02 СЗ 3 2000 м ясно +11.0 +7.2 77 +9 +9 1016.3 1014.9 +10.8 +21.0
15 17.02 З 2 10 км ясно +10.0 +4.6 69 +9 +9 1016.9 1015.5
18 17.02 З 6 10 км ясно +16.3 +9.5 64 +15 +19 1018.0 1016.6 +10.0 +17.0
21 17.02 ЮЗ 3 10 км ясно +19.5 +11.7 61 +21 +30 комфорт 1015.9 1014.5
00 18.02 З 6 10 км ясно +17.9 +9.7 59 +17 +18 1014.6 1013.2 +10.0 +20.8
03 18.02 СВ 1 200 м ясно +13.7 +10.8 83 +14 +14 1014.7 1013.3
09 18.02 СЗ 5 200 м ясно +11.7 +9.9 89 +9 +9 1015.2 1013.8
12 18.02 З 6 200 м ясно +11.8 +10.2 90 +9 +9 1014.6 1013.2 +9.5 +20.8
15 18.02 СЗ 3 10 км ясно +8.3 +5.9 85 +6 +6 1016.6 1015.2
00 21.02 ЮЗ 2 10 км 5/0
[Ac trans]
+17.6 +9.6 59 +18 +19 1009.5 1008.1 +19.4
03 21.02 В 3 2000 м 4/0
[Ac trans]
+13.2 +7.5 68 +12 +12 1007.9 1006.5
06 21.02 СЗ 1 2000 м ясно +11.1 +9.3 89 +11 +11 1007.1 1005.7 -0.1 +19.4
09 21.02 ЮВ 1 2000 м ясно +9.8 +6.8 82 +9 +9 1005.9 1004.5
12 21.02 С 1 2000 м ясно +7.3 +5.8 90 +6 +6 1004.1 1002.7 +6.3 +19.4
15 21.02 В 1 10 км 4/0
[Ac trans]
+6.3 +5.6 95 +5 +6 1003.8 1002.4
18 21.02 З 2 10 км 8/0
[As op]
+13.2 +7.0 66 +13 +16 1005.2 1003.8 +6.3 +13.9
21 21.02 ЮВ 2 10 км 8/0
[As op]
+15.4 +8.7 64 +15 +19 1003.7 1002.3
00 22.02 Ю 2 10 км 5/0
[As op]
+14.4 +11.0 80 +14 +15 1003.5 1002.1 +6.3 +16.0
03 22.02 СВ 3 2000 м 8/0
[As op]
+9.6 +8.4 92 +7 +7 1005.0 1003.6
09 22.02 Ю 1 2000 м 8/0
[As op]
+5.8 +4.4 91 +5 +5 1008.1 1006.7
12 22.02 СЗ 1 2000 м 6/0
[As op]
+3.8 +2.3 90 +2 +2 1009.8 1008.4 +3.5 +16.0
15 22.02 СЗ 1 10 км ясно +5.2 +2.2 81 +4 +5 1012.5 1011.1
18 22.02 СЗ 4 10 км ясно +12.6 +6.7 67 +11 +17 1014.9 1013.5 +3.5 +13.2
21 22.02 СЗ 5 10 км ясно +15.7 +6.9 56 +15 +20 1015.3 1013.9
00 23.02 СЗ 4 10 км ясно +16.8 +7.6 55 +16 +17 1016.4 1015.0 +3.5 +17.2
03 23.02 СВ 1 2000 м ясно +11.5 +9.3 86 +11 +11 1019.1 1017.7
06 23.02 С 1 2000 м ясно +7.6 +6.3 91 +7 +7 1021.9 1020.5 +3.5 +17.2

 

Местоположение метеостанции Нуэво Леон (Мексика): широта 32.40 долгота -115.10 высота над уровнем моря 11 м.

В архиве по умолчанию представлена погода в Нуэво Леон за последнюю неделю. Архивные данные за месяц целиком и за предыдущие месяцы, начиная с января 2011 года, Вы можете получить, выбрав интересующий диапазон дат из раскрывающегося списка и нажав кнопку "Ввод!".


*Определитесь, кто Вы:
робот инопланетянин человек

Внимание! Время в таблицах - всемирное. Для получения местного времени необходимо прибавить поправку, которая равна -8 ч.

Смотрите также архив погоды в соседних городах и на ближайших метеорологических станциях:

Погода в Сан-Фелипе (Мексика) (155 км)
Погода в Пуэрто-Пеньяско (Мексика) (191 км)
Погода в Альтаре (Мексика) (362 км)
Погода в Эрмосильо (Мексика) (534 км)
Погода в Эрмосильо Магна (Мексика) (542 км)
Погода в Накосари де Гарсия (Мексика) (562 км)
Погода в Санта-Розалии (Мексика) (632 км)
Погода в Гуаймасе (Мексика) (643 км)
Погода в Эмпальме (Мексика) (651 км)
Погода в Нуэво-Касас-Грандесе (Мексика) (720 км)

Пояснения к столбцам:

Ветер - указаны скорость ветра в м/с - средняя за 10 мин, порывы в срок и между сроками (в фигурных скобках) и направление, откуда дует ветер: С - северный, СВ - северо-восточный, В - восточный, ЮВ - юго-восточный, Ю - южный, ЮЗ - юго-западный, З - западный, СЗ - северо-западный.
Видимость - горизонтальная дальность видимости в метрах или километрах. При видимости от 1 до 10 км при отсутствии осадков обычно наблюдается дымка, при ухудшении видимости до 1 км и менее - туман. В сухую погоду видимость может ухудшаться дымом, пылью или мглою.
Явления - указаны атмосферные явления, наблюдавшиеся в срок или в последний час перед сроком; фигурными скобками обозначены явления, наблюдавшиеся между сроками (за 1-3 часа до срока); квадратными скобками обозначены град или гололедные отложения с указанием их диаметра в мм.
Облачность - указаны через наклонную черту общая и нижняя облачность в баллах и высота нижней границы облаков в метрах; квадратными скобками обозначены формы облаков: Ci - перистые, Cs - перисто-слоистые, Cc - перисто-кучевые, Ac - высококучевые, As - высокослоистые, Sc - слоисто-кучевые, Ns - слоисто-дождевые, Cu - кучевые, Cb - кучево-дождевые. Подробнее классификацию облаков см. в Атласе облаков (PDF).
T - Температура воздуха - температура, измеренная на высоте 2 м над землей.
Td - Температура точки росы - температура, при понижении до которой содержащийся в воздухе водяной пар достигнет насыщения.
f - Относительная влажность воздуха - влажноcть воздуха, измеренная на высоте 2 м над землей.
Te - Эффективная температура - температура, которую ощущает одетый по сезону человек в тени. Характеристика душности погоды. При расчете учитывается влияние влажности воздуха и скорости ветра на теплоощущения человека.
Tes - Эффективная температура на солнце - температура, которую ощущает человек, с поправкой на солнечный нагрев. Характеристика знойности погоды. Зависит от высоты солнца над горизонтом, облачности и скорости ветра. Ночью, в пасмурную погоду, а также при ветре 12 м/с и более поправка равна нулю.
P - Атмосферное давление - приведенное к уровню моря атмосферное давление.
Po - Атмосферное давление - измеренное на уровне метеостанции атмосферное давление.
Tmin - Минимальная температура - минимум температуры воздуха на высоте 2 м над землей.
Tmax - Максимальная температура - максимум температуры воздуха на высоте 2 м над землей.
R - Количество осадков - Количество выпавших осадков за период времени, мм. При наведении курсора мыши на число - период времени, за который выпало указанное количество осадков.
R24 - Количество осадков - Количество выпавших осадков за 24 часа, мм.
S - Снежный покров - Высота снежного покрова, см. При наведении курсора мыши на число - состояние снежного покрова и степень покрытия местности в баллах.